Morganton, NC

3:49 AM EDT on June 29, 2017 (GMT -0400)
Morganton-Lenoir

Weather History for KMRN - July, 2013

Change the Weather History Date:

Saturday, July 6, 2013

  Actual Average (KHKY) Record (KHKY)
Temperature  
Mean Temperature 74 °F -  
Max Temperature 84 °F 84 °F 98 °F (1993)
Min Temperature 65 °F 66 °F 53 °F (1972)
Cooling Degree Days 10    
Growing Degree Days 24 (Base 50)    
Moisture  
Dew Point 68 °F    
Average Humidity 84    
Maximum Humidity 100    
Minimum Humidity 55    
Precipitation  
Precipitation 0.11 in - - ()
Sea Level Pressure  
Sea Level Pressure 30.26 in    
Wind  
Wind Speed 2 mph (SE)    
Max Wind Speed 10 mph    
Max Gust Speed 17 mph    
Visibility 9 miles    
Events Fog , Rain    
Averages and records for this station are not official NWS values.
T = Trace of Precipitation, MM = Missing Value Source: NWS Daily Summary

Daily Weather History Graph

Daily Weather History Graph

Search for Another Location

Airport or City:

Trip Planner

Search our weather history database for the weather conditions in past years. The results will help you decide how hot, cold, wet, or windy it might be!

Date:

Astronomy

Jul. 06, 2013 Rise Set
Actual Time 6:16 AM EDT 8:45 PM EDT
Civil Twilight 5:46 AM EDT 9:15 PM EDT
Nautical Twilight 5:09 AM EDT 9:52 PM EDT
Astronomical Twilight 4:28 AM EDT 10:33 PM EDT
Moon 4:59 AM EDT (7/6) 7:28 PM EDT (7/6)
Length of Visible Light 15h 29m
Length of Day
14h 29m
Waning Crescent, 2% of the Moon is Illuminated
Jul 6
Waning Crescent
Jul 8
New
Jul 15
First Quarter
Jul 22
Full
Jul 29
Last Quarter

Hourly Weather History & Observations

Time (EDT) Temp. Heat Index Dew Point Humidity Pressure Visibility Wind Dir Wind Speed Gust Speed Precip Events Conditions
12:15 AM 66.6 °F - 66.6 °F 100% 30.30 in 0.2 mi Calm Calm - N/A Fog Fog
12:35 AM 66.4 °F - 66.4 °F 100% 30.30 in 0.5 mi Calm Calm - N/A Fog Fog
12:55 AM 66.6 °F - 66.6 °F 100% 30.30 in 0.5 mi Calm Calm - N/A Fog Fog
1:15 AM 65.8 °F - 65.8 °F 100% 30.29 in 0.8 mi Calm Calm - N/A   Overcast
1:35 AM 65.5 °F - 65.5 °F 100% 30.29 in 0.5 mi Calm Calm - N/A Fog Fog
1:55 AM 66.2 °F - 66.2 °F 100% 30.29 in 7.0 mi Calm Calm - N/A   Overcast
2:15 AM 66.2 °F - 66.2 °F 100% 30.28 in 5.0 mi Calm Calm - N/A   Overcast
2:35 AM 66.7 °F - 66.7 °F 100% 30.28 in 7.0 mi Calm Calm - N/A   Overcast
2:55 AM 66.6 °F - 66.6 °F 100% 30.28 in 5.0 mi Calm Calm - N/A   Overcast
3:15 AM 66.6 °F - 66.6 °F 100% 30.27 in 7.0 mi Calm Calm - N/A   Overcast
3:35 AM 66.6 °F - 66.6 °F 100% 30.27 in 10.0 mi Calm Calm - N/A   Overcast
3:55 AM 67.1 °F - 67.1 °F 100% 30.27 in 7.0 mi Calm Calm - N/A Rain Rain
4:15 AM 67.1 °F - 67.1 °F 100% 30.27 in 10.0 mi Calm Calm - N/A   Overcast
4:35 AM 67.3 °F - 67.3 °F 100% 30.27 in 7.0 mi Calm Calm - N/A   Overcast
4:55 AM 67.5 °F - 67.5 °F 100% 30.27 in 7.0 mi Calm Calm - N/A   Overcast
5:15 AM 67.5 °F - 67.5 °F 100% 30.27 in 7.0 mi Calm Calm - N/A   Overcast
5:35 AM 67.5 °F - 67.5 °F 100% 30.27 in 10.0 mi Calm Calm - N/A   Overcast
5:55 AM 67.6 °F - 67.6 °F 100% 30.28 in 10.0 mi Calm Calm - N/A   Overcast
6:15 AM 67.6 °F - 67.6 °F 100% 30.28 in 7.0 mi Calm Calm - N/A   Overcast
6:35 AM 68.0 °F - 68.0 °F 100% 30.28 in 7.0 mi Calm Calm - N/A   Overcast
6:55 AM 68.0 °F - 68.0 °F 100% 30.29 in 7.0 mi Calm Calm - N/A   Overcast
7:15 AM 68.4 °F - 68.4 °F 100% 30.29 in 7.0 mi Calm Calm - N/A   Overcast
7:35 AM 68.5 °F - 68.5 °F 100% 30.29 in 10.0 mi SE 4.6 mph - N/A   Overcast
7:55 AM 68.9 °F - 68.9 °F 100% 30.29 in 10.0 mi SE 4.6 mph - N/A   Mostly Cloudy
8:15 AM 70.0 °F - 69.6 °F 99% 30.30 in 10.0 mi SE 3.5 mph - N/A   Scattered Clouds
8:35 AM 71.6 °F - 68.7 °F 91% 30.30 in 10.0 mi ESE 5.8 mph - N/A   Scattered Clouds
8:55 AM 71.1 °F - 68.0 °F 90% 30.31 in 10.0 mi ESE 3.5 mph - N/A   Clear
9:15 AM 73.0 °F - 67.6 °F 83% 30.31 in 10.0 mi SE 3.5 mph - N/A   Scattered Clouds
9:35 AM 73.6 °F - 68.2 °F 83% 30.31 in 10.0 mi SSE 4.6 mph - N/A   Mostly Cloudy
9:55 AM 74.5 °F - 66.9 °F 77% 30.30 in 10.0 mi SE 5.8 mph - N/A   Mostly Cloudy
10:15 AM 75.4 °F - 67.1 °F 75% 30.30 in 10.0 mi SE 4.6 mph - N/A   Mostly Cloudy
10:35 AM 75.7 °F - 66.7 °F 74% 30.30 in 10.0 mi SSE 5.8 mph - N/A   Scattered Clouds
10:55 AM 76.3 °F - 67.3 °F 74% 30.30 in 10.0 mi SE 4.6 mph - N/A   Scattered Clouds
11:15 AM 77.4 °F - 67.5 °F 71% 30.30 in 10.0 mi SSE 5.8 mph - N/A   Scattered Clouds
11:35 AM 77.0 °F - 66.7 °F 70% 30.30 in 10.0 mi SSE 5.8 mph - N/A   Mostly Cloudy
11:55 AM 79.0 °F - 66.7 °F 66% 30.30 in 10.0 mi SSE 6.9 mph - N/A   Scattered Clouds
12:15 PM 80.1 °F 82.4 °F 67.3 °F 65% 30.29 in 10.0 mi SSE 5.8 mph - N/A   Scattered Clouds
12:35 PM 80.2 °F 82.5 °F 66.4 °F 63% 30.28 in 10.0 mi SE 6.9 mph - N/A   Scattered Clouds
12:55 PM 80.8 °F 83.1 °F 66.6 °F 62% 30.28 in 10.0 mi SE 6.9 mph - N/A   Mostly Cloudy
1:15 PM 80.1 °F 82.4 °F 67.3 °F 65% 30.28 in 10.0 mi SSE 8.1 mph - N/A   Mostly Cloudy
1:35 PM 81.3 °F 84.0 °F 67.6 °F 63% 30.27 in 10.0 mi SSE 5.8 mph - N/A   Mostly Cloudy
1:55 PM 81.5 °F 83.9 °F 67.1 °F 61% 30.26 in 10.0 mi South 9.2 mph - N/A   Scattered Clouds
2:15 PM 82.6 °F 85.3 °F 67.3 °F 60% 30.25 in 10.0 mi ESE 6.9 mph - N/A   Scattered Clouds
2:35 PM 82.0 °F 84.7 °F 67.3 °F 61% 30.25 in 10.0 mi SSE 5.8 mph - N/A   Scattered Clouds
2:55 PM 82.6 °F 84.9 °F 66.4 °F 58% 30.24 in 10.0 mi SSE 6.9 mph - N/A   Scattered Clouds
3:15 PM 82.2 °F 85.8 °F 69.4 °F 65% 30.23 in 10.0 mi East 8.1 mph - N/A   Scattered Clouds
3:35 PM 82.8 °F 86.4 °F 69.6 °F 64% 30.22 in 10.0 mi ESE 5.8 mph - N/A   Clear
3:55 PM 83.3 °F 86.6 °F 68.7 °F 61% 30.22 in 10.0 mi SE 6.9 mph - N/A   Scattered Clouds
4:15 PM 82.2 °F 85.1 °F 68.0 °F 62% 30.21 in 10.0 mi SE 5.8 mph - N/A   Mostly Cloudy
4:35 PM 83.3 °F 85.9 °F 67.3 °F 58% 30.20 in 10.0 mi SE 5.8 mph - N/A   Scattered Clouds
4:55 PM 84.2 °F 86.6 °F 66.4 °F 55% 30.20 in 10.0 mi SSE 8.1 mph - N/A   Scattered Clouds
5:15 PM 83.8 °F 87.0 °F 68.0 °F 59% 30.20 in 10.0 mi SSE 5.8 mph - N/A   Scattered Clouds
5:35 PM 83.8 °F 87.0 °F 68.4 °F 59% 30.20 in 10.0 mi SE 10.4 mph - N/A   Scattered Clouds
5:55 PM 80.6 °F 83.6 °F 69.3 °F 68% 30.19 in 10.0 mi ESE 6.9 mph - N/A   Mostly Cloudy
6:15 PM 80.2 °F 83.2 °F 69.1 °F 69% 30.19 in 10.0 mi SE 10.4 mph - N/A   Scattered Clouds
6:35 PM 81.1 °F 84.4 °F 69.1 °F 67% 30.19 in 10.0 mi ESE 9.2 mph - N/A   Clear
6:55 PM 80.6 °F 83.4 °F 68.4 °F 66% 30.20 in 10.0 mi SE 8.1 mph - N/A   Scattered Clouds
7:15 PM 79.2 °F - 68.5 °F 70% 30.20 in 10.0 mi SE 4.6 mph - N/A   Mostly Cloudy
7:35 PM 77.7 °F - 68.0 °F 72% 30.22 in 10.0 mi SE 5.8 mph - N/A   Mostly Cloudy
7:55 PM 76.5 °F - 68.7 °F 77% 30.23 in 10.0 mi SSE 10.4 mph 17.3 mph N/A Rain Light Rain
8:15 PM 73.0 °F - 71.1 °F 93% 30.23 in 10.0 mi Calm Calm - 0.01 in Rain Light Rain
8:35 PM 73.2 °F - 71.8 °F 95% 30.24 in 10.0 mi Calm Calm - 0.01 in   Overcast
8:55 PM 72.9 °F - 72.0 °F 97% 30.24 in 10.0 mi Calm Calm - 0.01 in   Overcast
9:15 PM 72.5 °F - 71.8 °F 98% 30.24 in 10.0 mi Calm Calm - N/A   Overcast
9:35 PM 72.0 °F - 71.6 °F 99% 30.24 in 10.0 mi Calm Calm - N/A   Overcast
9:55 PM 72.0 °F - 71.6 °F 99% 30.25 in 10.0 mi Calm Calm - N/A Rain Rain
10:15 PM 71.6 °F - 71.2 °F 99% 30.25 in 4.0 mi ENE 5.8 mph - 0.09 in Rain Light Rain
10:35 PM 71.2 °F - 70.9 °F 99% 30.26 in 10.0 mi SSE 3.5 mph - 0.09 in Rain Light Rain
10:55 PM 71.2 °F - 70.9 °F 99% 30.25 in 10.0 mi SE 4.6 mph - 0.09 in   Overcast
11:15 PM 71.1 °F - 70.7 °F 99% 30.26 in 10.0 mi Calm Calm - 0.01 in   Mostly Cloudy
11:35 PM 71.1 °F - 70.7 °F 99% 30.26 in 10.0 mi SE 3.5 mph - 0.01 in Rain Rain
11:55 PM 70.9 °F - 70.3 °F 98% 30.26 in 10.0 mi SSE 3.5 mph - 0.01 in Rain Rain